Home   Weather   Larvik   Past weeks

Flag for Norway Past Weather in Larvik, Norway — Yesterday and Last 2 Weeks

46 °F

Drizzle. Partly sunny.

Feels Like: 41 °F
Forecast: 43 / 51 °F
Wind: 13 mph from South

Location: Torp

Current Time: Oct 26, 2016 at 5:27:54 PM

Latest Report: Oct 26, 2016 at 4:50 PM

Visibility: 5 mi

Pressure: 30.09 "Hg

Humidity: 100%

Dew Point: 46 °F

Location of LarvikLocation

Past Weather in Larvik — Graph


Larvik Temperature Yesterday

Maximum temperature yesterday: 43 °F (at 12:50 PM)
Minimum temperature yesterday: 39 °F (at 8:20 AM)
Average temperature yesterday: 41 °F

High & Low Weather Summary for the Past Weeks

High46 °F (Oct 17, 8:20 PM)100% (Oct 13, 8:20 PM)30.57 "Hg (Oct 13, 8:20 PM)
Low32 °F (Oct 14, 11:50 AM)70% (Oct 15, 11:50 AM)30.09 "Hg (Oct 18, 2:20 PM)
Average41 °F95%30.32 "Hg
* Reported Oct 11 3:20 PM — Oct 26 3:50 PM, Larvik, Weather by CustomWeather, © 2016

Note: Actual official high and low records may vary slightly from our data, if they occured in-between our weather recording intervals... More about our weather records


Larvik Weather History for the Previous 24 Hours

Scroll right to see more
Time TempWeatherWind HumidityBarometerVisibility
3:50 PM
Wed, Oct 26
46 °FDrizzle. Broken clouds.13 mph100%30.12 "HgN/A
3:20 PM46 °FDrizzle. Mostly cloudy.14 mph100%30.15 "HgN/A
2:50 PM46 °FPartly sunny.13 mph100%30.15 "HgN/A
2:20 PM46 °FScattered showers. Broken clouds.12 mph100%30.15 "HgN/A
1:50 PM45 °FScattered showers. Broken clouds.8 mph100%30.18 "HgN/A
1:20 PM45 °FBroken clouds.7 mph100%30.18 "HgN/A
12:50 PM45 °FBroken clouds.7 mph100%30.18 "HgN/A
12:20 PM45 °FScattered clouds.3 mph100%30.21 "HgN/A
11:50 AM43 °FScattered clouds.6 mph100%30.21 "HgN/A
11:20 AM41 °FScattered clouds.7 mph100%30.21 "HgN/A
10:50 AM39 °FScattered clouds.2 mph100%30.21 "HgN/A
10:20 AM39 °FScattered clouds.6 mph100%30.21 "HgN/A
9:50 AM39 °FScattered clouds.5 mph100%30.24 "HgN/A
9:20 AM39 °FScattered clouds.6 mph100%30.24 "HgN/A
8:50 AM37 °FScattered clouds.5 mph100%30.24 "HgN/A
8:20 AM37 °FPassing clouds.5 mph100%30.24 "HgN/A
7:50 AM37 °FPassing clouds.3 mph100%30.24 "HgN/A
7:20 AM36 °FClear.5 mph100%30.24 "Hg10 mi
6:50 AM37 °FPassing clouds.6 mph100%30.24 "HgN/A
6:20 AM37 °FClear.7 mph100%30.24 "Hg10 mi
5:50 AM37 °FClear.8 mph100%30.24 "Hg10 mi
5:20 AM37 °FChilly.7 mph100%30.24 "HgN/A
4:50 AM37 °FChilly.7 mph100%30.24 "HgN/A
4:20 AM37 °FChilly.8 mph100%30.24 "HgN/A
3:50 AM37 °FChilly.6 mph100%30.27 "HgN/A
3:20 AM37 °FChilly.8 mph100%30.27 "HgN/A
2:50 AM36 °FChilly.6 mph100%30.27 "HgN/A
2:20 AM36 °FChilly.6 mph100%30.27 "HgN/A
1:50 AM36 °FChilly.5 mph100%30.27 "HgN/A
1:20 AM37 °FChilly.5 mph100%30.27 "Hg6 mi
12:50 AM37 °FChilly.3 mph100%30.30 "HgN/A
12:20 AM37 °FChilly.3 mph100%30.30 "HgN/A
11:50 PM
Tue, Oct 25
39 °FChilly.5 mph100%30.30 "HgN/A
11:20 PM39 °FPassing clouds.6 mph100%30.30 "HgN/A
10:50 PM41 °FOvercast.3 mph100%30.30 "HgN/A
10:20 PM41 °FOvercast.1 mph100%30.30 "HgN/A
9:50 PM41 °FOvercast.3 mph100%30.30 "HgN/A
9:20 PM41 °FOvercast.3 mph100%30.30 "HgN/A
8:50 PM41 °FOvercast.No wind100%30.30 "HgN/A
8:20 PM41 °FOvercast.2 mph100%30.30 "HgN/A
7:50 PM41 °FOvercast.1 mph100%30.30 "HgN/A
7:20 PM41 °FOvercast.2 mph100%30.30 "HgN/A
6:50 PM41 °FPassing clouds.2 mph100%30.30 "HgN/A
6:20 PM41 °FPassing clouds.1 mph100%30.30 "HgN/A
5:50 PM41 °FPassing clouds.3 mph100%30.30 "HgN/A
5:20 PM41 °FPartly sunny.3 mph100%30.30 "HgN/A
Weather by CustomWeather, © 2016

See weather overviewHow to use our weather pages